Location: Brienzwiler
(46.7508°N, 8.1014°E)
Time: 17:11:01
(UTC+00:00)

Cosmos 2333 Rocket - Pass Details

Date: 05 July 2020
Orbit: 837 x 864 km, 70.8° (Epoch: 10 August)

Event Time Altitude Azimuth Distance (km) Brightness Sun altitude
Rises 22:23:51 0° 237° (WSW) 3,398 5.2 -18.9°
Reaches altitude 10° 22:26:34 10° 247° (WSW) 2,470 4.6 -19.0°
Maximum altitude 22:31:36 32° 310° (NW) 1,436 3.9 -19.2°
Drops below altitude 10° 22:36:41 10° 12° (NNE) 2,499 5.6 -19.4°
Sets 22:39:27 0° 23° (NNE) 3,443 6.3 -19.6°
